Location: Davidschlag
(48.4333°N, 14.2833°E)
Time: 17:31:14
(UTC+00:00)

STARLINK-1037 - Pass Details

Date: 27 February 2020
Orbit: 547 x 551 km, 53.0° (Epoch: 31 March)

Event Time Altitude Azimuth Distance (km) Brightness Sun altitude
Rises 19:01:33 0° 277° (W) 2,715 8.6 -23.6°
Reaches altitude 10° 19:03:52 10° 284° (WNW) 1,822 7.4 -24.0°
Enters shadow 19:07:45 43° 353° (N) 777 4.4 -24.6°
